Flag for Estonia Weather past 2 weeks in Tallinn, Estonia

Now
36 °F

Overcast.


Feels Like: 28 °F
Forecast: 33 / 37 °F
Wind: 10 mph from Southeast

Location: Tallinn

Current Time: Mar 2, 2015 at 3:23:52 AM

Latest Report: Mar 2, 2015 at 2:50 AM


Visibility: 5 mi

Pressure: 29.56 "Hg

Humidity: 93%

Dew point: 34 °F

Location of TallinnLocation

Historic Weather in Tallinn — Graph

°F

Tallinn temperature yesterday

Maximum temperature yesterday: 37 °F (at 2:50 PM)
Minimum temperature yesterday: 32 °F (at 2:50 AM)
Average temperature yesterday: 34 °F

Past Weeks' High & Low Weather Summary

 TemperatureHumidityPressure
High43 °F (Feb 25, 12:50 PM)100% (Feb 18, 5:20 AM)30.83 "Hg (Feb 18, 5:20 AM)
Low14 °F (Feb 16, 4:20 AM)37% (Feb 16, 2:50 PM)29.24 "Hg (Feb 22, 7:50 AM)
Average33 °F84%29.97 "Hg
* Reported Feb 15 1:20 AM — Mar 2 1:50 AM, Tallinn, Weather by CustomWeather, © 2015

Note: Actual official high and low records may vary slightly from our data, if they occured in-between our weather recording intervals... More about our weather records

Advertising

Tallinn weather history for previous 24 hours

 ConditionsComfort  
Time TempWeatherWind HumidityBarometerVisibility
1:50 AM
Mon, Mar 2
36 °FPassing clouds.12 mph93%29.59 "Hg5 mi
1:20 AM36 °FMostly cloudy.10 mph87%29.59 "Hg4 mi
12:50 AM36 °FPartly cloudy.10 mph87%29.62 "Hg5 mi
12:20 AM36 °FPassing clouds.9 mph87%29.62 "Hg5 mi
11:50 PM
Sun, Mar 1
34 °FPassing clouds.9 mph93%29.62 "HgN/A
11:20 PM34 °FPassing clouds.8 mph87%29.65 "HgN/A
10:50 PM34 °FClear.7 mph87%29.65 "Hg10 mi
10:20 PM36 °FPassing clouds.7 mph87%29.65 "Hg6 mi
9:20 PM36 °FOvercast.7 mph93%29.68 "Hg4 mi
8:50 PM36 °FOvercast.7 mph93%29.68 "Hg4 mi
8:20 PM36 °FPassing clouds.7 mph93%29.68 "Hg4 mi
7:50 PM36 °FPassing clouds.7 mph93%29.71 "Hg4 mi
7:20 PM37 °FOvercast.9 mph87%29.71 "Hg4 mi
6:50 PM37 °FOvercast.9 mph93%29.71 "Hg4 mi
6:20 PM37 °FMostly cloudy.10 mph93%29.71 "Hg4 mi
5:20 PM37 °FDrizzle. Fog.7 mph93%29.74 "Hg3 mi
4:50 PM37 °FLight rain. Fog.8 mph93%29.74 "Hg3 mi
4:20 PM37 °FLight rain. Fog.9 mph93%29.77 "Hg3 mi
3:50 PM37 °FDrizzle. Fog.10 mph93%29.77 "Hg2 mi
3:20 PM37 °FMostly cloudy.9 mph93%29.77 "Hg4 mi
2:50 PM37 °FLow clouds.9 mph93%29.77 "Hg4 mi
12:20 PM36 °FFog.9 mph100%29.83 "Hg3 mi
11:50 AM36 °FDrizzle. Fog.9 mph93%29.83 "Hg1 mi
11:20 AM36 °FDrizzle. Fog.9 mph93%29.83 "Hg3 mi
10:50 AM34 °FLight rain. Fog.9 mph100%29.86 "Hg2 mi
10:20 AM34 °FLight rain. Fog.8 mph100%29.86 "Hg2 mi
9:50 AM34 °FLow clouds.8 mph93%29.86 "Hg4 mi
9:20 AM34 °FLow clouds.8 mph93%29.86 "HgN/A
8:50 AM34 °FBroken clouds.8 mph93%29.86 "HgN/A
8:20 AM34 °FScattered clouds.8 mph93%29.86 "HgN/A
7:50 AM32 °FScattered clouds.8 mph93%29.86 "HgN/A
7:20 AM32 °FBroken clouds.7 mph93%29.89 "HgN/A
6:50 AM32 °FLow clouds.8 mph93%29.89 "HgN/A
6:20 AM32 °FPartly cloudy.7 mph93%29.89 "HgN/A
5:50 AM32 °FPassing clouds.7 mph93%29.89 "HgN/A
5:20 AM32 °FPassing clouds.8 mph93%29.89 "HgN/A
4:50 AM32 °FPassing clouds.8 mph87%29.89 "HgN/A
4:20 AM32 °FClear.9 mph87%29.89 "Hg10 mi
3:50 AM32 °FClear.7 mph87%29.92 "Hg10 mi
3:20 AM32 °FClear.8 mph87%29.92 "Hg10 mi
Weather by CustomWeather, © 2015

See weather overviewHow to use our weather pages